Time,TemperatureF,DewpointF,PressureIn,WindDirection,WindDirectionDegrees,WindSpeedMPH,WindSpeedGustMPH,Humidity,HourlyPrecipIn,Conditions,Clouds,dailyrainin,SolarRadiationWatts/m^2,SoftwareType,DateUTC
2013-05-05 00:00:00,49.2,42.0,30.16,NNW,330,4.0,5.0,76,0.00,,,0.00,0.00,VWS V14.00,2013-05-05 04:00:00,
2013-05-05 00:01:00,49.2,42.0,30.16,NNW,330,3.0,5.0,76,0.00,,,0.00,0.00,VWS V14.00,2013-05-05 04:01:00,
2013-05-05 00:02:00,49.1,41.9,30.17,NNW,330,4.0,5.0,76,0.00,,,0.00,0.00,VWS V14.00,2013-05-05 04:02:00,
2013-05-05 00:05:00,49.0,41.8,30.17,NNW,329,4.0,5.0,76,0.00,,,0.00,0.00,VWS V14.00,2013-05-05 04:05:00,
2013-05-05 00:07:00,48.9,41.7,30.17,NNW,329,5.0,5.0,76,0.00,,,0.00,0.00,VWS V14.00,2013-05-05 04:07:00,
2013-05-05 00:10:00,48.7,41.8,30.17,NNW,329,4.0,5.0,77,0.00,,,0.00,0.00,VWS V14.00,2013-05-05 04:10:00,
2013-05-05 00:12:00,48.6,41.7,30.16,NNW,329,3.0,4.0,77,0.00,,,0.00,0.00,VWS V14.00,2013-05-05 04:12:00,
2013-05-05 00:15:00,48.5,41.6,30.17,NNW,329,2.0,4.0,77,0.00,,,0.00,0.00,VWS V14.00,2013-05-05 04:15:00,
2013-05-05 00:17:00,48.4,41.5,30.17,NNW,329,0.0,2.0,77,0.00,,,0.00,0.00,VWS V14.00,2013-05-05 04:17:00,
2013-05-05 00:20:00,48.3,41.4,30.17,NNW,329,2.0,3.0,77,0.00,,,0.00,0.00,VWS V14.00,2013-05-05 04:20:00,
2013-05-05 00:22:00,48.3,41.4,30.17,NNW,329,0.0,2.0,77,0.00,,,0.00,0.00,VWS V14.00,2013-05-05 04:22:00,
2013-05-05 00:25:00,48.2,41.7,30.17,NNW,329,0.0,2.0,78,0.00,,,0.00,0.00,VWS V14.00,2013-05-05 04:25:00,
2013-05-05 00:27:00,48.2,41.7,30.17,NNW,329,0.0,1.0,78,0.00,,,0.00,0.00,VWS V14.00,2013-05-05 04:27:00,
2013-05-05 00:30:00,48.1,41.6,30.17,NNW,329,2.0,3.0,78,0.00,,,0.00,0.00,VWS V14.00,2013-05-05 04:30:00,
2013-05-05 00:32:00,48.1,41.6,30.17,NNW,329,2.0,3.0,78,0.00,,,0.00,0.00,VWS V14.00,2013-05-05 04:32:00,
2013-05-05 00:35:00,48.0,41.5,30.17,NNW,329,2.0,3.0,78,0.00,,,0.00,0.00,VWS V14.00,2013-05-05 04:35:00,
2013-05-05 00:37:00,48.0,41.5,30.17,NNW,329,3.0,3.0,78,0.00,,,0.00,0.00,VWS V14.00,2013-05-05 04:37:00,
2013-05-05 00:40:00,47.9,41.4,30.17,NNW,329,2.0,3.0,78,0.00,,,0.00,0.00,VWS V14.00,2013-05-05 04:40:00,
2013-05-05 00:42:00,47.9,41.4,30.17,NNW,329,2.0,2.0,78,0.00,,,0.00,0.00,VWS V14.00,2013-05-05 04:42:00,
2013-05-05 00:45:00,47.8,41.3,30.17,NNW,329,2.0,3.0,78,0.00,,,0.00,0.00,VWS V14.00,2013-05-05 04:45:00,
2013-05-05 00:47:00,47.8,41.3,30.17,NNW,329,3.0,3.0,78,0.00,,,0.00,0.00,VWS V14.00,2013-05-05 04:47:00,
2013-05-05 00:50:00,47.7,41.2,30.17,NNW,329,1.0,4.0,78,0.00,,,0.00,0.00,VWS V14.00,2013-05-05 04:50:00,
2013-05-05 00:52:00,47.7,41.2,30.17,NNW,329,1.0,2.0,78,0.00,,,0.00,0.00,VWS V14.00,2013-05-05 04:52:00,
2013-05-05 00:55:00,47.5,41.3,30.16,NNW,329,4.0,4.0,79,0.00,,,0.00,0.00,VWS V14.00,2013-05-05 04:55:00,
2013-05-05 00:57:00,47.5,41.3,30.17,NNW,329,0.0,4.0,79,0.00,,,0.00,0.00,VWS V14.00,2013-05-05 04:57:00,
2013-05-05 01:00:00,47.5,41.3,30.16,NNW,329,3.0,4.0,79,0.00,,,0.00,0.00,VWS V14.00,2013-05-05 05:00:00,
2013-05-05 01:02:00,47.5,41.3,30.16,NNW,329,2.0,3.0,79,0.00,,,0.00,0.00,VWS V14.00,2013-05-05 05:02:00,
2013-05-05 01:05:00,47.4,41.2,30.16,NNW,329,2.0,3.0,79,0.00,,,0.00,0.00,VWS V14.00,2013-05-05 05:05:00,
2013-05-05 01:07:00,47.4,41.2,30.16,NNW,329,3.0,4.0,79,0.00,,,0.00,0.00,VWS V14.00,2013-05-05 05:07:00,
2013-05-05 01:10:00,47.3,41.1,30.17,NNW,329,3.0,4.0,79,0.00,,,0.00,0.00,VWS V14.00,2013-05-05 05:10:00,
2013-05-05 01:12:00,47.3,41.1,30.16,NNW,329,0.0,3.0,79,0.00,,,0.00,0.00,VWS V14.00,2013-05-05 05:12:00,
2013-05-05 01:15:00,47.2,41.0,30.17,NNW,329,3.0,4.0,79,0.00,,,0.00,0.00,VWS V14.00,2013-05-05 05:15:00,
2013-05-05 01:17:00,47.2,41.0,30.16,NNW,329,2.0,3.0,79,0.00,,,0.00,0.00,VWS V14.00,2013-05-05 05:17:00,
2013-05-05 01:20:00,47.1,40.9,30.17,NNW,329,0.0,3.0,79,0.00,,,0.00,0.00,VWS V14.00,2013-05-05 05:20:00,
2013-05-05 01:22:00,47.1,40.9,30.16,NNW,329,0.0,0.0,79,0.00,,,0.00,0.00,VWS V14.00,2013-05-05 05:22:00,
2013-05-05 01:25:00,47.0,41.2,30.16,NNW,329,0.0,3.0,80,0.00,,,0.00,0.00,VWS V14.00,2013-05-05 05:25:00,
2013-05-05 01:27:00,47.0,41.2,30.16,NNW,329,0.0,1.0,80,0.00,,,0.00,0.00,VWS V14.00,2013-05-05 05:27:00,
2013-05-05 01:30:00,46.9,41.1,30.16,NNW,329,2.0,3.0,80,0.00,,,0.00,0.00,VWS V14.00,2013-05-05 05:30:00,
2013-05-05 01:32:00,46.9,41.1,30.16,NNW,329,1.0,2.0,80,0.00,,,0.00,0.00,VWS V14.00,2013-05-05 05:32:00,
2013-05-05 01:35:00,46.8,41.0,30.16,NNW,329,2.0,4.0,80,0.00,,,0.00,0.00,VWS V14.00,2013-05-05 05:35:00,
2013-05-05 01:37:00,46.8,41.0,30.16,NNW,329,3.0,4.0,80,0.00,,,0.00,0.00,VWS V14.00,2013-05-05 05:37:00,
2013-05-05 01:40:00,46.7,40.9,30.16,NNW,329,3.0,4.0,80,0.00,,,0.00,0.00,VWS V14.00,2013-05-05 05:40:00,
2013-05-05 01:42:00,46.7,40.9,30.17,NNW,329,1.0,4.0,80,0.00,,,0.00,0.00,VWS V14.00,2013-05-05 05:42:00,
2013-05-05 01:45:00,46.6,40.8,30.16,NNW,329,2.0,5.0,80,0.00,,,0.00,0.00,VWS V14.00,2013-05-05 05:45:00,
2013-05-05 01:47:00,46.5,40.7,30.16,NNW,329,0.0,3.0,80,0.00,,,0.00,0.00,VWS V14.00,2013-05-05 05:47:00,
2013-05-05 01:50:00,46.5,40.7,30.16,NNW,329,4.0,4.0,80,0.00,,,0.00,0.00,VWS V14.00,2013-05-05 05:50:00,
2013-05-05 01:52:00,46.4,40.9,30.16,NNW,329,3.0,4.0,81,0.00,,,0.00,0.00,VWS V14.00,2013-05-05 05:52:00,
2013-05-05 01:55:00,46.3,40.5,30.16,NNW,329,0.0,4.0,80,0.00,,,0.00,0.00,VWS V14.00,2013-05-05 05:55:00,
2013-05-05 01:57:00,46.3,40.8,30.16,NNW,329,0.0,0.0,81,0.00,,,0.00,0.00,VWS V14.00,2013-05-05 05:57:00,
2013-05-05 02:00:00,46.2,40.7,30.16,NNW,329,0.0,1.0,81,0.00,,,0.00,0.00,VWS V14.00,2013-05-05 06:00:00,
2013-05-05 02:03:00,46.1,40.6,30.16,NNW,329,0.0,0.0,81,0.00,,,0.00,0.00,VWS V14.00,2013-05-05 06:03:00,
2013-05-05 02:05:00,46.0,40.5,30.16,NNW,329,0.0,1.0,81,0.00,,,0.00,0.00,VWS V14.00,2013-05-05 06:05:00,
2013-05-05 02:08:00,45.9,40.4,30.16,NNW,329,0.0,0.0,81,0.00,,,0.00,0.00,VWS V14.00,2013-05-05 06:08:00,
2013-05-05 02:10:00,45.8,40.3,30.16,NNW,329,4.0,4.0,81,0.00,,,0.00,0.00,VWS V14.00,2013-05-05 06:10:00,
2013-05-05 02:13:00,45.8,40.3,30.16,NNW,328,1.0,5.0,81,0.00,,,0.00,0.00,VWS V14.00,2013-05-05 06:13:00,
2013-05-05 02:15:00,45.6,40.1,30.16,NNW,328,0.0,5.0,81,0.00,,,0.00,0.00,VWS V14.00,2013-05-05 06:15:00,
2013-05-05 02:18:00,45.6,40.1,30.16,NNW,328,0.0,0.0,81,0.00,,,0.00,0.00,VWS V14.00,2013-05-05 06:18:00,
2013-05-05 02:20:00,45.5,40.0,30.16,NNW,328,0.0,0.0,81,0.00,,,0.00,0.00,VWS V14.00,2013-05-05 06:20:00,
2013-05-05 02:23:00,45.5,40.0,30.16,NNW,328,0.0,3.0,81,0.00,,,0.00,0.00,VWS V14.00,2013-05-05 06:23:00,
2013-05-05 02:25:00,45.4,39.9,30.16,NNW,328,3.0,4.0,81,0.00,,,0.00,0.00,VWS V14.00,2013-05-05 06:25:00,
2013-05-05 02:28:00,45.4,39.9,30.16,NNW,328,1.0,3.0,81,0.00,,,0.00,0.00,VWS V14.00,2013-05-05 06:28:00,
2013-05-05 02:30:00,45.5,40.0,30.16,NNW,328,0.0,3.0,81,0.00,,,0.00,0.00,VWS V14.00,2013-05-05 06:30:00,
2013-05-05 02:33:00,45.5,40.0,30.16,NNW,328,0.0,1.0,81,0.00,,,0.00,0.00,VWS V14.00,2013-05-05 06:33:00,
2013-05-05 02:35:00,45.6,40.1,30.16,NNW,328,0.0,1.0,81,0.00,,,0.00,0.00,VWS V14.00,2013-05-05 06:35:00,
2013-05-05 02:38:00,45.6,40.1,30.16,NNW,328,0.0,0.0,81,0.00,,,0.00,0.00,VWS V14.00,2013-05-05 06:38:00,
2013-05-05 02:40:00,45.6,40.1,30.16,NNW,328,2.0,4.0,81,0.00,,,0.00,0.00,VWS V14.00,2013-05-05 06:40:00,
2013-05-05 02:43:00,45.7,39.9,30.16,NNW,328,0.0,2.0,80,0.00,,,0.00,0.00,VWS V14.00,2013-05-05 06:43:00,
2013-05-05 02:45:00,45.7,39.9,30.16,NNW,328,0.0,2.0,80,0.00,,,0.00,0.00,VWS V14.00,2013-05-05 06:45:00,
2013-05-05 02:48:00,45.8,40.0,30.16,NNW,328,0.0,0.0,80,0.00,,,0.00,0.00,VWS V14.00,2013-05-05 06:48:00,
2013-05-05 02:50:00,45.8,39.7,30.16,NNW,328,0.0,0.0,79,0.00,,,0.00,0.00,VWS V14.00,2013-05-05 06:50:00,
2013-05-05 02:53:00,45.8,39.7,30.16,NNW,328,0.0,0.0,79,0.00,,,0.00,0.00,VWS V14.00,2013-05-05 06:53:00,
2013-05-05 02:55:00,45.8,39.7,30.16,NNW,328,0.0,0.0,79,0.00,,,0.00,0.00,VWS V14.00,2013-05-05 06:55:00,
2013-05-05 02:58:00,45.9,39.4,30.16,NNW,328,0.0,0.0,78,0.00,,,0.00,0.00,VWS V14.00,2013-05-05 06:58:00,
2013-05-05 03:00:00,45.9,39.4,30.16,NNW,328,0.0,0.0,78,0.00,,,0.00,0.00,VWS V14.00,2013-05-05 07:00:00,
2013-05-05 03:03:00,45.9,39.1,30.16,NNW,328,0.0,2.0,77,0.00,,,0.00,0.00,VWS V14.00,2013-05-05 07:03:00,
2013-05-05 03:05:00,45.9,39.1,30.16,NNW,328,0.0,2.0,77,0.00,,,0.00,0.00,VWS V14.00,2013-05-05 07:05:00,
2013-05-05 03:08:00,45.9,38.8,30.16,NNW,328,2.0,2.0,76,0.00,,,0.00,0.00,VWS V14.00,2013-05-05 07:08:00,
2013-05-05 03:10:00,45.9,38.8,30.16,NNW,328,0.0,2.0,76,0.00,,,0.00,0.00,VWS V14.00,2013-05-05 07:10:00,
2013-05-05 03:13:00,46.0,38.9,30.16,NNW,328,0.0,1.0,76,0.00,,,0.00,0.00,VWS V14.00,2013-05-05 07:13:00,
2013-05-05 03:15:00,46.0,38.9,30.16,NNW,328,0.0,1.0,76,0.00,,,0.00,0.00,VWS V14.00,2013-05-05 07:15:00,
2013-05-05 03:18:00,46.0,38.5,30.16,NNW,328,0.0,0.0,75,0.00,,,0.00,0.00,VWS V14.00,2013-05-05 07:18:00,
2013-05-05 03:20:00,46.0,38.5,30.16,NNW,328,0.0,0.0,75,0.00,,,0.00,0.00,VWS V14.00,2013-05-05 07:20:00,
2013-05-05 03:23:00,46.0,38.5,30.16,NNW,328,0.0,1.0,75,0.00,,,0.00,0.00,VWS V14.00,2013-05-05 07:23:00,
2013-05-05 03:25:00,46.0,38.5,30.16,NNW,328,0.0,1.0,75,0.00,,,0.00,0.00,VWS V14.00,2013-05-05 07:25:00,
2013-05-05 03:28:00,46.1,38.3,30.16,NNW,328,0.0,0.0,74,0.00,,,0.00,0.00,VWS V14.00,2013-05-05 07:28:00,
2013-05-05 03:30:00,46.1,38.3,30.16,NNW,328,0.0,1.0,74,0.00,,,0.00,0.00,VWS V14.00,2013-05-05 07:30:00,
2013-05-05 03:33:00,46.1,38.3,30.16,NNW,328,0.0,0.0,74,0.00,,,0.00,0.00,VWS V14.00,2013-05-05 07:33:00,
2013-05-05 03:35:00,46.0,38.2,30.16,NNW,328,2.0,2.0,74,0.00,,,0.00,0.00,VWS V14.00,2013-05-05 07:35:00,
2013-05-05 03:38:00,46.0,38.2,30.16,NNW,328,0.0,2.0,74,0.00,,,0.00,0.00,VWS V14.00,2013-05-05 07:38:00,
2013-05-05 03:40:00,46.0,38.2,30.16,NNW,328,0.0,2.0,74,0.00,,,0.00,0.00,VWS V14.00,2013-05-05 07:40:00,
2013-05-05 03:43:00,46.0,38.2,30.16,NNW,328,0.0,0.0,74,0.00,,,0.00,0.00,VWS V14.00,2013-05-05 07:43:00,
2013-05-05 03:45:00,45.9,37.8,30.16,NNW,328,0.0,1.0,73,0.00,,,0.00,0.00,VWS V14.00,2013-05-05 07:45:00,
2013-05-05 03:49:00,45.9,37.8,30.16,NNW,328,0.0,0.0,73,0.00,,,0.00,0.00,VWS V14.00,2013-05-05 07:49:00,
2013-05-05 03:50:00,45.9,37.8,30.16,NNW,328,0.0,0.0,73,0.00,,,0.00,0.00,VWS V14.00,2013-05-05 07:50:00,
2013-05-05 03:54:00,45.9,37.8,30.16,NNW,328,0.0,1.0,73,0.00,,,0.00,0.00,VWS V14.00,2013-05-05 07:54:00,
2013-05-05 03:55:00,45.9,37.8,30.16,NNW,328,0.0,1.0,73,0.00,,,0.00,0.00,VWS V14.00,2013-05-05 07:55:00,
2013-05-05 03:59:00,45.8,37.7,30.17,NNW,328,0.0,0.0,73,0.00,,,0.00,0.00,VWS V14.00,2013-05-05 07:59:00,
2013-05-05 04:00:00,45.8,37.7,30.17,NNW,328,0.0,0.0,73,0.00,,,0.00,0.00,VWS V14.00,2013-05-05 08:00:00,
2013-05-05 04:04:00,45.7,37.5,30.17,NNW,328,0.0,0.0,73,0.00,,,0.00,0.00,VWS V14.00,2013-05-05 08:04:00,
2013-05-05 04:05:00,45.7,37.5,30.17,NNW,328,1.0,1.0,73,0.00,,,0.00,0.00,VWS V14.00,2013-05-05 08:05:00,
2013-05-05 04:09:00,45.6,37.5,30.17,NNW,328,0.0,2.0,73,0.00,,,0.00,0.00,VWS V14.00,2013-05-05 08:09:00,
2013-05-05 04:10:00,45.5,37.4,30.17,NNW,328,0.0,2.0,73,0.00,,,0.00,0.00,VWS V14.00,2013-05-05 08:10:00,
2013-05-05 04:14:00,45.5,37.4,30.17,NNW,328,0.0,0.0,73,0.00,,,0.00,0.00,VWS V14.00,2013-05-05 08:14:00,
2013-05-05 04:15:00,45.4,37.3,30.17,NNW,328,0.0,0.0,73,0.00,,,0.00,0.00,VWS V14.00,2013-05-05 08:15:00,
2013-05-05 04:19:00,45.4,37.6,30.17,NNW,328,0.0,1.0,74,0.00,,,0.00,0.00,VWS V14.00,2013-05-05 08:19:00,
2013-05-05 04:20:00,45.3,37.5,30.17,NNW,328,0.0,2.0,74,0.00,,,0.00,0.00,VWS V14.00,2013-05-05 08:20:00,
2013-05-05 04:24:00,45.2,37.4,30.17,NNW,328,0.0,1.0,74,0.00,,,0.00,0.00,VWS V14.00,2013-05-05 08:24:00,
2013-05-05 04:25:00,45.2,37.4,30.17,NNW,328,2.0,2.0,74,0.00,,,0.00,0.00,VWS V14.00,2013-05-05 08:25:00,
2013-05-05 04:29:00,45.2,37.4,30.17,NNW,328,0.0,2.0,74,0.00,,,0.00,0.00,VWS V14.00,2013-05-05 08:29:00,
2013-05-05 04:30:00,45.1,37.3,30.17,NNW,328,0.0,2.0,74,0.00,,,0.00,0.00,VWS V14.00,2013-05-05 08:30:00,
2013-05-05 04:34:00,45.1,37.3,30.17,NNW,328,0.0,0.0,74,0.00,,,0.00,0.00,VWS V14.00,2013-05-05 08:34:00,
2013-05-05 04:35:00,45.0,37.2,30.17,NNW,328,0.0,1.0,74,0.00,,,0.00,0.00,VWS V14.00,2013-05-05 08:35:00,
2013-05-05 04:39:00,44.9,37.1,30.17,NNW,328,0.0,2.0,74,0.00,,,0.00,0.00,VWS V14.00,2013-05-05 08:39:00,
2013-05-05 04:40:00,44.9,37.1,30.17,NNW,328,1.0,2.0,74,0.00,,,0.00,0.00,VWS V14.00,2013-05-05 08:40:00,
2013-05-05 04:44:00,44.7,36.9,30.17,NNW,328,0.0,1.0,74,0.00,,,0.00,0.00,VWS V14.00,2013-05-05 08:44:00,
2013-05-05 04:45:00,44.7,36.9,30.16,NNW,328,0.0,1.0,74,0.00,,,0.00,0.00,VWS V14.00,2013-05-05 08:45:00,
2013-05-05 04:49:00,44.6,37.2,30.16,NNW,328,0.0,0.0,75,0.00,,,0.00,0.00,VWS V14.00,2013-05-05 08:49:00,
2013-05-05 04:50:00,44.6,37.2,30.17,NNW,328,0.0,1.0,75,0.00,,,0.00,0.00,VWS V14.00,2013-05-05 08:50:00,
2013-05-05 04:54:00,44.5,37.1,30.16,NNW,328,0.0,0.0,75,0.00,,,0.00,0.00,VWS V14.00,2013-05-05 08:54:00,
2013-05-05 04:55:00,44.5,37.1,30.17,NNW,328,0.0,0.0,75,0.00,,,0.00,0.00,VWS V14.00,2013-05-05 08:55:00,
2013-05-05 04:59:00,44.4,37.0,30.17,NNW,328,0.0,0.0,75,0.00,,,0.00,0.00,VWS V14.00,2013-05-05 08:59:00,
2013-05-05 05:00:00,44.4,37.0,30.17,NNW,328,0.0,1.0,75,0.00,,,0.00,0.00,VWS V14.00,2013-05-05 09:00:00,
2013-05-05 05:04:00,44.3,36.9,30.16,NNW,328,0.0,1.0,75,0.00,,,0.00,0.00,VWS V14.00,2013-05-05 09:04:00,
2013-05-05 05:05:00,44.3,36.9,30.17,NNW,328,0.0,1.0,75,0.00,,,0.00,0.00,VWS V14.00,2013-05-05 09:05:00,
2013-05-05 05:09:00,44.2,36.8,30.16,NNW,328,0.0,1.0,75,0.00,,,0.00,0.00,VWS V14.00,2013-05-05 09:09:00,
2013-05-05 05:10:00,44.1,36.7,30.17,NNW,328,0.0,1.0,75,0.00,,,0.00,0.00,VWS V14.00,2013-05-05 09:10:00,
2013-05-05 05:14:00,44.0,36.6,30.17,NNW,328,0.0,0.0,75,0.00,,,0.00,0.00,VWS V14.00,2013-05-05 09:14:00,
2013-05-05 05:15:00,44.0,36.6,30.17,NNW,328,0.0,0.0,75,0.00,,,0.00,0.00,VWS V14.00,2013-05-05 09:15:00,
2013-05-05 05:19:00,43.9,36.5,30.17,NNW,328,0.0,0.0,75,0.00,,,0.00,0.00,VWS V14.00,2013-05-05 09:19:00,
2013-05-05 05:20:00,43.8,36.4,30.17,NNW,328,0.0,1.0,75,0.00,,,0.00,0.00,VWS V14.00,2013-05-05 09:20:00,
2013-05-05 05:24:00,43.7,36.6,30.17,NNW,328,0.0,1.0,76,0.00,,,0.00,0.00,VWS V14.00,2013-05-05 09:24:00,
2013-05-05 05:25:00,43.6,36.5,30.17,NNW,328,0.0,2.0,76,0.00,,,0.00,0.00,VWS V14.00,2013-05-05 09:25:00,
2013-05-05 05:29:00,43.4,36.3,30.17,NNW,328,2.0,2.0,76,0.00,,,0.00,0.00,VWS V14.00,2013-05-05 09:29:00,
2013-05-05 05:30:00,43.4,36.3,30.18,NNW,328,0.0,2.0,76,0.00,,,0.00,0.00,VWS V14.00,2013-05-05 09:30:00,
2013-05-05 05:34:00,43.2,36.5,30.18,NNW,328,0.0,1.0,77,0.00,,,0.00,0.00,VWS V14.00,2013-05-05 09:34:00,
2013-05-05 05:35:00,43.2,36.5,30.18,NNW,328,0.0,1.0,77,0.00,,,0.00,0.00,VWS V14.00,2013-05-05 09:35:00,
2013-05-05 05:39:00,43.0,36.3,30.17,NNW,328,0.0,2.0,77,0.00,,,0.00,5.00,VWS V14.00,2013-05-05 09:39:00,
2013-05-05 05:40:00,43.0,36.6,30.17,NNW,328,2.0,2.0,78,0.00,,,0.00,5.00,VWS V14.00,2013-05-05 09:40:00,
2013-05-05 05:44:00,42.9,36.5,30.18,NNW,328,0.0,2.0,78,0.00,,,0.00,7.00,VWS V14.00,2013-05-05 09:44:00,
2013-05-05 05:45:00,42.8,36.4,30.18,NNW,328,0.0,2.0,78,0.00,,,0.00,7.00,VWS V14.00,2013-05-05 09:45:00,
2013-05-05 05:49:00,42.8,36.4,30.18,NNW,328,0.0,0.0,78,0.00,,,0.00,9.00,VWS V14.00,2013-05-05 09:49:00,
2013-05-05 05:50:00,42.8,36.4,30.18,NNW,328,0.0,0.0,78,0.00,,,0.00,11.00,VWS V14.00,2013-05-05 09:50:00,
2013-05-05 05:54:00,42.7,36.7,30.18,NNW,328,0.0,1.0,79,0.00,,,0.00,12.00,VWS V14.00,2013-05-05 09:54:00,
2013-05-05 05:55:00,42.6,36.6,30.18,NNW,328,0.0,1.0,79,0.00,,,0.00,12.00,VWS V14.00,2013-05-05 09:55:00,
2013-05-05 05:59:00,42.6,36.5,30.17,NNW,328,0.0,0.0,79,0.00,,,0.00,16.00,VWS V14.00,2013-05-05 09:59:00,
2013-05-05 06:00:00,42.6,36.6,30.18,NNW,328,0.0,0.0,79,0.00,,,0.00,16.00,VWS V14.00,2013-05-05 10:00:00,
2013-05-05 06:04:00,42.6,36.5,30.18,NNW,328,0.0,2.0,79,0.00,,,0.00,18.00,VWS V14.00,2013-05-05 10:04:00,
2013-05-05 06:05:00,42.6,36.9,30.18,NNW,328,0.0,2.0,80,0.00,,,0.00,18.00,VWS V14.00,2013-05-05 10:05:00,
2013-05-05 06:09:00,42.6,36.9,30.18,NNW,328,0.0,0.0,80,0.00,,,0.00,21.00,VWS V14.00,2013-05-05 10:09:00,
2013-05-05 06:10:00,42.5,36.8,30.18,NNW,328,0.0,0.0,80,0.00,,,0.00,21.00,VWS V14.00,2013-05-05 10:10:00,
2013-05-05 06:14:00,42.6,36.9,30.18,NNW,328,0.0,1.0,80,0.00,,,0.00,23.00,VWS V14.00,2013-05-05 10:14:00,
2013-05-05 06:15:00,42.6,36.9,30.18,NNW,328,0.0,1.0,80,0.00,,,0.00,23.00,VWS V14.00,2013-05-05 10:15:00,
2013-05-05 06:19:00,42.7,37.0,30.18,NNW,328,0.0,1.0,80,0.00,,,0.00,25.00,VWS V14.00,2013-05-05 10:19:00,
2013-05-05 06:20:00,42.7,37.0,30.18,NNW,328,0.0,1.0,80,0.00,,,0.00,25.00,VWS V14.00,2013-05-05 10:20:00,
2013-05-05 06:24:00,42.7,37.0,30.18,NNW,328,1.0,2.0,80,0.00,,,0.00,26.00,VWS V14.00,2013-05-05 10:24:00,
2013-05-05 06:25:00,42.8,37.1,30.18,NNW,328,0.0,2.0,80,0.00,,,0.00,26.00,VWS V14.00,2013-05-05 10:25:00,
2013-05-05 06:29:00,42.9,37.2,30.18,NNW,328,0.0,1.0,80,0.00,,,0.00,30.00,VWS V14.00,2013-05-05 10:29:00,
2013-05-05 06:30:00,42.9,37.2,30.18,NNW,328,0.0,1.0,80,0.00,,,0.00,30.00,VWS V14.00,2013-05-05 10:30:00,
2013-05-05 06:34:00,43.1,37.7,30.18,NNW,328,0.0,1.0,81,0.00,,,0.00,32.00,VWS V14.00,2013-05-05 10:34:00,
2013-05-05 06:35:00,43.2,37.8,30.18,NNW,328,0.0,1.0,81,0.00,,,0.00,35.00,VWS V14.00,2013-05-05 10:35:00,
2013-05-05 06:39:00,43.4,37.7,30.18,NNW,328,0.0,1.0,80,0.00,,,0.00,37.00,VWS V14.00,2013-05-05 10:39:00,
2013-05-05 06:40:00,43.5,38.1,30.18,NNW,328,0.0,1.0,81,0.00,,,0.00,33.00,VWS V14.00,2013-05-05 10:40:00,
2013-05-05 06:44:00,43.6,38.2,30.19,NNW,328,0.0,1.0,81,0.00,,,0.00,35.00,VWS V14.00,2013-05-05 10:44:00,
2013-05-05 06:45:00,43.7,38.3,30.19,NNW,328,0.0,1.0,81,0.00,,,0.00,44.00,VWS V14.00,2013-05-05 10:45:00,
2013-05-05 06:49:00,43.8,38.4,30.19,NNW,328,0.0,1.0,81,0.00,,,0.00,37.00,VWS V14.00,2013-05-05 10:49:00,
2013-05-05 06:50:00,43.9,38.5,30.19,NNW,328,0.0,1.0,81,0.00,,,0.00,39.00,VWS V14.00,2013-05-05 10:50:00,
2013-05-05 06:54:00,44.1,38.7,30.19,NNW,328,0.0,0.0,81,0.00,,,0.00,40.00,VWS V14.00,2013-05-05 10:54:00,
2013-05-05 06:55:00,44.2,38.8,30.19,NNW,328,0.0,0.0,81,0.00,,,0.00,44.00,VWS V14.00,2013-05-05 10:55:00,
2013-05-05 06:59:00,44.4,38.9,30.19,NNW,328,0.0,1.0,81,0.00,,,0.00,49.00,VWS V14.00,2013-05-05 10:59:00,
2013-05-05 07:00:00,44.5,39.0,30.19,NNW,328,0.0,1.0,81,0.00,,,0.00,40.00,VWS V14.00,2013-05-05 11:00:00,
2013-05-05 07:04:00,44.9,39.4,30.19,NNW,328,1.0,1.0,81,0.00,,,0.00,39.00,VWS V14.00,2013-05-05 11:04:00,
2013-05-05 07:05:00,45.0,39.5,30.19,NNW,328,0.0,1.0,81,0.00,,,0.00,40.00,VWS V14.00,2013-05-05 11:05:00,
2013-05-05 07:09:00,45.2,39.7,30.19,NNW,328,0.0,2.0,81,0.00,,,0.00,40.00,VWS V14.00,2013-05-05 11:09:00,
2013-05-05 07:10:00,45.4,39.9,30.19,NNW,328,1.0,2.0,81,0.00,,,0.00,42.00,VWS V14.00,2013-05-05 11:10:00,
2013-05-05 07:14:00,45.6,39.8,30.19,NNW,328,0.0,1.0,80,0.00,,,0.00,46.00,VWS V14.00,2013-05-05 11:14:00,
2013-05-05 07:15:00,45.8,40.0,30.19,NNW,328,0.0,1.0,80,0.00,,,0.00,49.00,VWS V14.00,2013-05-05 11:15:00,
2013-05-05 07:19:00,46.1,40.0,30.19,NNW,328,0.0,0.0,79,0.00,,,0.00,46.00,VWS V14.00,2013-05-05 11:19:00,
2013-05-05 07:20:00,46.2,40.1,30.19,NNW,328,0.0,1.0,79,0.00,,,0.00,46.00,VWS V14.00,2013-05-05 11:20:00,
2013-05-05 07:25:00,46.6,40.5,30.19,NNW,328,0.0,1.0,79,0.00,,,0.00,47.00,VWS V14.00,2013-05-05 11:25:00,
2013-05-05 07:30:00,47.2,41.0,30.19,NNW,328,0.0,1.0,79,0.00,,,0.00,58.00,VWS V14.00,2013-05-05 11:30:00,
2013-05-05 07:35:00,47.9,41.4,30.19,NNW,328,0.0,1.0,78,0.00,,,0.00,46.00,VWS V14.00,2013-05-05 11:35:00,
2013-05-05 07:40:00,48.7,41.8,30.19,NNW,348,1.0,2.0,77,0.00,,,0.00,84.00,VWS V14.00,2013-05-05 11:40:00,
2013-05-05 07:45:00,49.6,42.4,30.19,ENE,75,0.0,2.0,76,0.00,,,0.00,72.00,VWS V14.00,2013-05-05 11:45:00,
2013-05-05 07:50:00,50.5,42.9,30.19,East,88,0.0,2.0,75,0.00,,,0.00,79.00,VWS V14.00,2013-05-05 11:50:00,
2013-05-05 07:55:00,51.2,43.6,30.19,East,89,0.0,3.0,75,0.00,,,0.00,76.00,VWS V14.00,2013-05-05 11:55:00,
2013-05-05 08:00:00,51.9,43.9,30.19,East,90,0.0,5.0,74,0.00,,,0.00,56.00,VWS V14.00,2013-05-05 12:00:00,
2013-05-05 08:05:00,52.6,44.2,30.19,East,94,1.0,5.0,73,0.00,,,0.00,84.00,VWS V14.00,2013-05-05 12:05:00,
2013-05-05 08:10:00,53.3,44.9,30.19,East,101,3.0,5.0,73,0.00,,,0.00,276.00,VWS V14.00,2013-05-05 12:10:00,
2013-05-05 08:15:00,53.8,45.0,30.19,East,94,0.0,7.0,72,0.00,,,0.00,336.00,VWS V14.00,2013-05-05 12:15:00,
2013-05-05 08:20:00,54.3,45.1,30.19,ESE,121,3.0,3.0,71,0.00,,,0.00,425.00,VWS V14.00,2013-05-05 12:20:00,
2013-05-05 08:25:00,54.9,45.7,30.19,ESE,121,0.0,5.0,71,0.00,,,0.00,443.00,VWS V14.00,2013-05-05 12:25:00,
2013-05-05 08:30:00,55.3,45.7,30.19,ESE,105,4.0,8.0,70,0.00,,,0.00,461.00,VWS V14.00,2013-05-05 12:30:00,
2013-05-05 08:35:00,56.0,46.0,30.19,SSE,150,0.0,7.0,69,0.00,,,0.00,475.00,VWS V14.00,2013-05-05 12:35:00,
2013-05-05 08:40:00,56.5,46.1,30.19,SE,145,0.0,5.0,68,0.00,,,0.00,492.00,VWS V14.00,2013-05-05 12:40:00,
2013-05-05 08:45:00,56.9,46.1,30.19,SE,125,0.0,8.0,67,0.00,,,0.00,504.00,VWS V14.00,2013-05-05 12:45:00,
2013-05-05 08:50:00,57.2,46.0,30.19,East,101,0.0,7.0,66,0.00,,,0.00,522.00,VWS V14.00,2013-05-05 12:50:00,
2013-05-05 08:55:00,57.3,46.0,30.19,SE,137,2.0,7.0,66,0.00,,,0.00,534.00,VWS V14.00,2013-05-05 12:55:00,
2013-05-05 09:00:00,57.7,46.4,30.19,SSE,150,3.0,8.0,66,0.00,,,0.00,550.00,VWS V14.00,2013-05-05 13:00:00,
2013-05-05 09:05:00,57.7,46.0,30.19,SSE,154,5.0,11.0,65,0.00,,,0.00,566.00,VWS V14.00,2013-05-05 13:05:00,
2013-05-05 09:10:00,57.9,45.8,30.19,ESE,116,2.0,7.0,64,0.00,,,0.00,582.00,VWS V14.00,2013-05-05 13:10:00,
2013-05-05 09:15:00,58.3,46.2,30.19,ESE,120,1.0,9.0,64,0.00,,,0.00,596.00,VWS V14.00,2013-05-05 13:15:00,
2013-05-05 09:20:00,58.7,46.2,30.19,East,101,0.0,7.0,63,0.00,,,0.00,610.00,VWS V14.00,2013-05-05 13:20:00,
2013-05-05 09:25:00,59.1,46.1,30.19,ESE,123,1.0,8.0,62,0.00,,,0.00,622.00,VWS V14.00,2013-05-05 13:25:00,
2013-05-05 09:30:00,59.5,46.9,30.19,SE,130,0.0,8.0,63,0.00,,,0.00,635.00,VWS V14.00,2013-05-05 13:30:00,
2013-05-05 09:35:00,59.9,47.3,30.19,SE,140,0.0,8.0,63,0.00,,,0.00,652.00,VWS V14.00,2013-05-05 13:35:00,
2013-05-05 09:40:00,60.3,46.8,30.19,ESE,120,2.0,9.0,61,0.00,,,0.00,663.00,VWS V14.00,2013-05-05 13:40:00,
2013-05-05 09:45:00,60.5,47.0,30.19,SSE,153,12.0,12.0,61,0.00,,,0.00,679.00,VWS V14.00,2013-05-05 13:45:00,
2013-05-05 09:50:00,60.8,46.4,30.18,SSE,159,7.0,9.0,59,0.00,,,0.00,691.00,VWS V14.00,2013-05-05 13:50:00,
2013-05-05 09:51:00,60.8,46.4,30.18,SSE,159,7.0,9.0,59,0.00,,,0.00,691.00,VWS V14.00,2013-05-05 13:51:00,
2013-05-05 09:55:00,60.9,46.0,30.18,SSE,148,3.0,11.0,58,0.00,,,0.00,705.00,VWS V14.00,2013-05-05 13:55:00,
2013-05-05 09:56:00,60.9,46.0,30.18,SSE,148,3.0,11.0,58,0.00,,,0.00,705.00,VWS V14.00,2013-05-05 13:56:00,
2013-05-05 10:00:00,61.0,46.1,30.19,SE,132,3.0,8.0,58,0.00,,,0.00,717.00,VWS V14.00,2013-05-05 14:00:00,
2013-05-05 10:01:00,61.0,46.1,30.19,SE,139,0.0,8.0,58,0.00,,,0.00,717.00,VWS V14.00,2013-05-05 14:01:00,
2013-05-05 10:05:00,61.2,46.8,30.19,SE,134,0.0,7.0,59,0.00,,,0.00,726.00,VWS V14.00,2013-05-05 14:05:00,
2013-05-05 10:06:00,61.2,46.8,30.19,SE,134,0.0,7.0,59,0.00,,,0.00,726.00,VWS V14.00,2013-05-05 14:06:00,
2013-05-05 10:10:00,61.6,46.7,30.19,SSE,149,7.0,11.0,58,0.00,,,0.00,738.00,VWS V14.00,2013-05-05 14:10:00,
2013-05-05 10:11:00,61.6,46.7,30.19,SSE,149,7.0,11.0,58,0.00,,,0.00,738.00,VWS V14.00,2013-05-05 14:11:00,
2013-05-05 10:15:00,62.0,46.6,30.18,SE,144,3.0,10.0,57,0.00,,,0.00,752.00,VWS V14.00,2013-05-05 14:15:00,
2013-05-05 10:16:00,62.0,46.6,30.18,SE,144,3.0,10.0,57,0.00,,,0.00,752.00,VWS V14.00,2013-05-05 14:16:00,
2013-05-05 10:20:00,62.3,46.9,30.18,East,92,7.0,8.0,57,0.00,,,0.00,761.00,VWS V14.00,2013-05-05 14:20:00,
2013-05-05 10:21:00,62.3,46.9,30.18,East,92,7.0,8.0,57,0.00,,,0.00,761.00,VWS V14.00,2013-05-05 14:21:00,
2013-05-05 10:25:00,62.4,46.0,30.18,SE,137,7.0,11.0,55,0.00,,,0.00,775.00,VWS V14.00,2013-05-05 14:25:00,
2013-05-05 10:26:00,62.4,46.0,30.18,SE,137,7.0,11.0,55,0.00,,,0.00,775.00,VWS V14.00,2013-05-05 14:26:00,
2013-05-05 10:30:00,62.6,47.2,30.18,SE,126,6.0,10.0,57,0.00,,,0.00,786.00,VWS V14.00,2013-05-05 14:30:00,
2013-05-05 10:31:00,62.6,47.2,30.18,SE,126,6.0,10.0,57,0.00,,,0.00,786.00,VWS V14.00,2013-05-05 14:31:00,
2013-05-05 10:43:00,62.7,46.3,30.18,SE,135,5.0,11.0,55,0.00,,,0.00,791.00,VWS V14.00,2013-05-05 14:43:00,
2013-05-05 10:48:00,63.1,46.7,30.18,SE,143,9.0,11.0,55,0.00,,,0.00,819.00,VWS V14.00,2013-05-05 14:48:00,
2013-05-05 10:53:00,63.2,46.3,30.18,SSE,150,1.0,7.0,54,0.00,,,0.00,830.00,VWS V14.00,2013-05-05 14:53:00,
2013-05-05 10:58:00,63.4,46.0,30.18,SE,139,9.0,10.0,53,0.00,,,0.00,838.00,VWS V14.00,2013-05-05 14:58:00,
2013-05-05 11:03:00,63.5,46.6,30.18,ESE,111,2.0,10.0,54,0.00,,,0.00,849.00,VWS V14.00,2013-05-05 15:03:00,
2013-05-05 11:08:00,63.6,46.7,30.18,East,97,2.0,10.0,54,0.00,,,0.00,854.00,VWS V14.00,2013-05-05 15:08:00,
2013-05-05 11:13:00,63.7,45.2,30.18,East,98,6.0,7.0,51,0.00,,,0.00,863.00,VWS V14.00,2013-05-05 15:13:00,
2013-05-05 11:18:00,64.0,45.0,30.18,East,94,5.0,8.0,50,0.00,,,0.00,872.00,VWS V14.00,2013-05-05 15:18:00,
2013-05-05 11:23:00,64.4,46.4,30.17,SE,126,2.0,8.0,52,0.00,,,0.00,877.00,VWS V14.00,2013-05-05 15:23:00,
2013-05-05 11:28:00,64.7,45.7,30.17,SE,146,0.0,7.0,50,0.00,,,0.00,886.00,VWS V14.00,2013-05-05 15:28:00,
2013-05-05 11:33:00,64.8,45.7,30.17,SSW,211,3.0,8.0,50,0.00,,,0.00,893.00,VWS V14.00,2013-05-05 15:33:00,
2013-05-05 11:38:00,65.0,46.5,30.17,ESE,115,2.0,8.0,51,0.00,,,0.00,900.00,VWS V14.00,2013-05-05 15:38:00,
2013-05-05 11:43:00,65.4,47.3,30.17,SE,136,1.0,9.0,52,0.00,,,0.00,905.00,VWS V14.00,2013-05-05 15:43:00,
2013-05-05 11:48:00,65.7,46.0,30.17,SE,146,1.0,6.0,49,0.00,,,0.00,912.00,VWS V14.00,2013-05-05 15:48:00,
2013-05-05 11:53:00,66.1,46.4,30.17,East,98,3.0,9.0,49,0.00,,,0.00,916.00,VWS V14.00,2013-05-05 15:53:00,
2013-05-05 11:58:00,66.4,47.2,30.16,ENE,78,0.0,6.0,50,0.00,,,0.00,923.00,VWS V14.00,2013-05-05 15:58:00,
2013-05-05 12:03:00,66.6,45.8,30.17,SE,144,7.0,10.0,47,0.00,,,0.00,928.00,VWS V14.00,2013-05-05 16:03:00,
2013-05-05 12:08:00,66.8,45.9,30.16,SE,140,7.0,9.0,47,0.00,,,0.00,930.00,VWS V14.00,2013-05-05 16:08:00,
2013-05-05 12:13:00,66.9,46.0,30.16,SE,136,3.0,8.0,47,0.00,,,0.00,933.00,VWS V14.00,2013-05-05 16:13:00,
2013-05-05 12:18:00,67.1,47.9,30.16,SE,146,3.0,10.0,50,0.00,,,0.00,937.00,VWS V14.00,2013-05-05 16:18:00,
2013-05-05 12:23:00,67.4,46.5,30.15,ESE,115,3.0,9.0,47,0.00,,,0.00,940.00,VWS V14.00,2013-05-05 16:23:00,
2013-05-05 12:29:00,67.7,46.8,30.15,SE,144,2.0,8.0,47,0.00,,,0.00,942.00,VWS V14.00,2013-05-05 16:29:00,
2013-05-05 12:34:00,68.0,47.0,30.15,SE,136,2.0,7.0,47,0.00,,,0.00,944.00,VWS V14.00,2013-05-05 16:34:00,
2013-05-05 12:39:00,68.6,47.6,30.14,SSE,161,2.0,8.0,47,0.00,,,0.00,947.00,VWS V14.00,2013-05-05 16:39:00,
2013-05-05 12:44:00,68.9,46.7,30.15,SSE,161,3.0,7.0,45,0.00,,,0.00,951.00,VWS V14.00,2013-05-05 16:44:00,
2013-05-05 12:49:00,69.2,46.4,30.14,SE,142,1.0,8.0,44,0.00,,,0.00,951.00,VWS V14.00,2013-05-05 16:49:00,
2013-05-05 12:54:00,69.7,48.6,30.14,SE,145,2.0,7.0,47,0.00,,,0.00,954.00,VWS V14.00,2013-05-05 16:54:00,
2013-05-05 12:59:00,69.9,45.8,30.14,SSE,153,4.0,9.0,42,0.00,,,0.00,954.00,VWS V14.00,2013-05-05 16:59:00,
2013-05-05 13:04:00,70.2,48.5,30.14,SE,146,6.0,7.0,46,0.00,,,0.00,953.00,VWS V14.00,2013-05-05 17:04:00,
2013-05-05 13:09:00,70.5,47.0,30.14,SE,142,2.0,7.0,43,0.00,,,0.00,953.00,VWS V14.00,2013-05-05 17:09:00,
2013-05-05 13:14:00,70.7,46.5,30.14,ESE,120,0.0,8.0,42,0.00,,,0.00,953.00,VWS V14.00,2013-05-05 17:14:00,
2013-05-05 13:19:00,70.9,46.0,30.14,SE,145,3.0,8.0,41,0.00,,,0.00,951.00,VWS V14.00,2013-05-05 17:19:00,
2013-05-05 13:24:00,71.2,46.3,30.13,North,351,1.0,6.0,41,0.00,,,0.00,951.00,VWS V14.00,2013-05-05 17:24:00,
2013-05-05 13:29:00,71.3,45.1,30.13,SE,146,5.0,8.0,39,0.00,,,0.00,949.00,VWS V14.00,2013-05-05 17:29:00,
2013-05-05 13:34:00,72.1,43.7,30.13,SSE,148,0.0,7.0,36,0.00,,,0.00,944.00,VWS V14.00,2013-05-05 17:34:00,
2013-05-05 13:39:00,72.4,44.7,30.13,SE,143,0.0,8.0,37,0.00,,,0.00,940.00,VWS V14.00,2013-05-05 17:39:00,
2013-05-05 13:44:00,72.5,44.1,30.13,SE,139,2.0,8.0,36,0.00,,,0.00,939.00,VWS V14.00,2013-05-05 17:44:00,
2013-05-05 13:49:00,72.7,44.2,30.13,SSE,155,2.0,7.0,36,0.00,,,0.00,939.00,VWS V14.00,2013-05-05 17:49:00,
2013-05-05 13:54:00,73.0,42.2,30.12,SSE,153,1.0,7.0,33,0.00,,,0.00,935.00,VWS V14.00,2013-05-05 17:54:00,
2013-05-05 13:59:00,73.5,44.2,30.12,SSE,161,4.0,7.0,35,0.00,,,0.00,930.00,VWS V14.00,2013-05-05 17:59:00,
2013-05-05 14:04:00,73.7,45.8,30.13,SSW,193,5.0,5.0,37,0.00,,,0.00,926.00,VWS V14.00,2013-05-05 18:04:00,
2013-05-05 14:09:00,74.3,44.1,30.13,SE,140,4.0,7.0,34,0.00,,,0.00,921.00,VWS V14.00,2013-05-05 18:09:00,
2013-05-05 14:14:00,74.6,48.0,30.12,SSE,157,3.0,9.0,39,0.00,,,0.00,916.00,VWS V14.00,2013-05-05 18:14:00,
2013-05-05 14:19:00,74.9,46.9,30.12,SSE,162,0.0,6.0,37,0.00,,,0.00,911.00,VWS V14.00,2013-05-05 18:19:00,
2013-05-05 14:24:00,74.9,46.9,30.12,SSE,152,1.0,6.0,37,0.00,,,0.00,905.00,VWS V14.00,2013-05-05 18:24:00,
2013-05-05 14:29:00,74.9,43.9,30.12,East,94,0.0,5.0,33,0.00,,,0.00,896.00,VWS V14.00,2013-05-05 18:29:00,
2013-05-05 14:34:00,74.8,43.8,30.11,ESE,117,0.0,6.0,33,0.00,,,0.00,888.00,VWS V14.00,2013-05-05 18:34:00,
2013-05-05 14:39:00,74.7,42.9,30.11,ENE,58,4.0,6.0,32,0.00,,,0.00,882.00,VWS V14.00,2013-05-05 18:39:00,
2013-05-05 14:44:00,74.7,43.7,30.11,ESE,103,2.0,8.0,33,0.00,,,0.00,872.00,VWS V14.00,2013-05-05 18:44:00,
2013-05-05 14:49:00,74.8,42.2,30.11,East,94,0.0,6.0,31,0.00,,,0.00,867.00,VWS V14.00,2013-05-05 18:49:00,
2013-05-05 14:54:00,74.9,42.3,30.11,SE,130,4.0,6.0,31,0.00,,,0.00,860.00,VWS V14.00,2013-05-05 18:54:00,
2013-05-05 14:59:00,74.7,42.9,30.11,SE,142,0.0,10.0,32,0.00,,,0.00,849.00,VWS V14.00,2013-05-05 18:59:00,
2013-05-05 15:04:00,74.9,43.1,30.11,South,181,1.0,7.0,32,0.00,,,0.00,840.00,VWS V14.00,2013-05-05 19:04:00,
2013-05-05 15:09:00,75.3,42.6,30.11,SE,146,11.0,11.0,31,0.00,,,0.00,833.00,VWS V14.00,2013-05-05 19:09:00,
2013-05-05 15:14:00,75.3,40.9,30.10,SE,142,5.0,11.0,29,0.00,,,0.00,823.00,VWS V14.00,2013-05-05 19:14:00,
2013-05-05 15:19:00,75.1,44.1,30.10,SSE,150,3.0,5.0,33,0.00,,,0.00,812.00,VWS V14.00,2013-05-05 19:19:00,
2013-05-05 15:24:00,74.9,39.6,30.10,SSE,149,8.0,11.0,28,0.00,,,0.00,802.00,VWS V14.00,2013-05-05 19:24:00,
2013-05-05 15:29:00,74.6,40.3,30.10,SE,134,7.0,9.0,29,0.00,,,0.00,793.00,VWS V14.00,2013-05-05 19:29:00,
2013-05-05 15:34:00,74.6,41.2,30.09,SE,144,9.0,10.0,30,0.00,,,0.00,782.00,VWS V14.00,2013-05-05 19:34:00,
2013-05-05 15:39:00,74.6,40.3,30.09,SSE,160,3.0,9.0,29,0.00,,,0.00,772.00,VWS V14.00,2013-05-05 19:39:00,
2013-05-05 15:44:00,74.9,45.4,30.10,SE,145,3.0,7.0,35,0.00,,,0.00,756.00,VWS V14.00,2013-05-05 19:44:00,
2013-05-05 15:50:00,75.4,43.5,30.09,South,173,7.0,8.0,32,0.00,,,0.00,745.00,VWS V14.00,2013-05-05 19:50:00,
2013-05-05 15:55:00,75.7,41.2,30.09,South,180,5.0,10.0,29,0.00,,,0.00,728.00,VWS V14.00,2013-05-05 19:55:00,
2013-05-05 16:00:00,75.2,42.5,30.09,SSE,150,9.0,10.0,31,0.00,,,0.00,715.00,VWS V14.00,2013-05-05 20:00:00,
2013-05-05 16:05:00,74.7,41.2,30.09,SE,137,6.0,9.0,30,0.00,,,0.00,707.00,VWS V14.00,2013-05-05 20:05:00,
2013-05-05 16:10:00,75.0,42.3,30.09,SE,139,3.0,8.0,31,0.00,,,0.00,691.00,VWS V14.00,2013-05-05 20:10:00,
2013-05-05 16:15:00,75.2,41.7,30.09,SE,145,3.0,10.0,30,0.00,,,0.00,675.00,VWS V14.00,2013-05-05 20:15:00,
2013-05-05 16:20:00,74.9,41.4,30.08,SE,146,4.0,8.0,30,0.00,,,0.00,661.00,VWS V14.00,2013-05-05 20:20:00,
2013-05-05 16:25:00,74.6,42.0,30.08,SE,144,7.0,11.0,31,0.00,,,0.00,645.00,VWS V14.00,2013-05-05 20:25:00,
2013-05-05 16:30:00,74.7,41.2,30.08,SSE,155,4.0,8.0,30,0.00,,,0.00,629.00,VWS V14.00,2013-05-05 20:30:00,
2013-05-05 16:35:00,74.7,43.7,30.08,South,178,3.0,7.0,33,0.00,,,0.00,619.00,VWS V14.00,2013-05-05 20:35:00,
2013-05-05 16:40:00,75.0,42.3,30.08,South,171,5.0,5.0,31,0.00,,,0.00,606.00,VWS V14.00,2013-05-05 20:40:00,
2013-05-05 16:45:00,75.4,42.7,30.08,SSE,159,6.0,6.0,31,0.00,,,0.00,591.00,VWS V14.00,2013-05-05 20:45:00,
2013-05-05 16:50:00,75.7,42.1,30.08,SSE,165,6.0,8.0,30,0.00,,,0.00,571.00,VWS V14.00,2013-05-05 20:50:00,
2013-05-05 16:55:00,75.6,40.2,30.07,SE,145,1.0,7.0,28,0.00,,,0.00,555.00,VWS V14.00,2013-05-05 20:55:00,
2013-05-05 17:00:00,75.5,44.4,30.07,SE,146,4.0,7.0,33,0.00,,,0.00,543.00,VWS V14.00,2013-05-05 21:00:00,
2013-05-05 17:05:00,75.8,43.0,30.07,SE,141,6.0,7.0,31,0.00,,,0.00,529.00,VWS V14.00,2013-05-05 21:05:00,
2013-05-05 17:10:00,75.9,43.1,30.07,SSE,158,1.0,7.0,31,0.00,,,0.00,510.00,VWS V14.00,2013-05-05 21:10:00,
2013-05-05 17:15:00,76.0,44.0,30.07,SE,138,4.0,4.0,32,0.00,,,0.00,497.00,VWS V14.00,2013-05-05 21:15:00,
2013-05-05 17:20:00,75.9,42.3,30.07,SE,143,4.0,5.0,30,0.00,,,0.00,485.00,VWS V14.00,2013-05-05 21:20:00,
2013-05-05 17:25:00,75.7,42.1,30.07,SSE,158,0.0,6.0,30,0.00,,,0.00,469.00,VWS V14.00,2013-05-05 21:25:00,
2013-05-05 17:30:00,75.8,39.5,30.07,SSW,192,6.0,6.0,27,0.00,,,0.00,452.00,VWS V14.00,2013-05-05 21:30:00,
2013-05-05 17:35:00,75.8,40.4,30.06,SSE,150,4.0,6.0,28,0.00,,,0.00,436.00,VWS V14.00,2013-05-05 21:35:00,
2013-05-05 17:40:00,75.8,40.4,30.06,SSE,163,1.0,7.0,28,0.00,,,0.00,418.00,VWS V14.00,2013-05-05 21:40:00,
2013-05-05 17:45:00,75.7,39.4,30.06,SSE,148,2.0,5.0,27,0.00,,,0.00,401.00,VWS V14.00,2013-05-05 21:45:00,
2013-05-05 17:50:00,75.5,40.2,30.06,SE,142,4.0,6.0,28,0.00,,,0.00,383.00,VWS V14.00,2013-05-05 21:50:00,
2013-05-05 17:55:00,75.2,39.9,30.06,SE,135,3.0,6.0,28,0.00,,,0.00,364.00,VWS V14.00,2013-05-05 21:55:00,
2013-05-05 18:00:00,74.9,41.4,30.06,SSE,148,1.0,7.0,30,0.00,,,0.00,350.00,VWS V14.00,2013-05-05 22:00:00,
2013-05-05 18:05:00,74.7,42.9,30.06,SSE,150,0.0,3.0,32,0.00,,,0.00,334.00,VWS V14.00,2013-05-05 22:05:00,
2013-05-05 18:10:00,74.6,41.2,30.06,SSE,150,4.0,5.0,30,0.00,,,0.00,316.00,VWS V14.00,2013-05-05 22:10:00,
2013-05-05 18:15:00,74.3,40.9,30.06,SSE,150,0.0,3.0,30,0.00,,,0.00,301.00,VWS V14.00,2013-05-05 22:15:00,
2013-05-05 18:20:00,74.1,40.7,30.06,SSE,150,0.0,4.0,30,0.00,,,0.00,285.00,VWS V14.00,2013-05-05 22:20:00,
2013-05-05 18:25:00,74.1,40.7,30.06,SSE,150,0.0,2.0,30,0.00,,,0.00,267.00,VWS V14.00,2013-05-05 22:25:00,
2013-05-05 18:30:00,74.1,40.7,30.06,SSE,158,5.0,7.0,30,0.00,,,0.00,250.00,VWS V14.00,2013-05-05 22:30:00,
2013-05-05 18:35:00,74.0,37.0,30.06,SSW,196,3.0,6.0,26,0.00,,,0.00,236.00,VWS V14.00,2013-05-05 22:35:00,
2013-05-05 18:40:00,74.0,37.9,30.06,SSE,163,1.0,7.0,27,0.00,,,0.00,216.00,VWS V14.00,2013-05-05 22:40:00,
2013-05-05 18:45:00,74.0,38.9,30.06,South,178,1.0,4.0,28,0.00,,,0.00,62.00,VWS V14.00,2013-05-05 22:45:00,
2013-05-05 18:50:00,73.8,39.6,30.06,South,178,0.0,1.0,29,0.00,,,0.00,67.00,VWS V14.00,2013-05-05 22:50:00,
2013-05-05 18:55:00,73.5,38.4,30.06,South,183,1.0,5.0,28,0.00,,,0.00,156.00,VWS V14.00,2013-05-05 22:55:00,
2013-05-05 19:00:00,73.3,39.2,30.06,South,182,1.0,4.0,29,0.00,,,0.00,137.00,VWS V14.00,2013-05-05 23:00:00,
2013-05-05 19:05:00,73.1,39.8,30.06,South,173,0.0,4.0,30,0.00,,,0.00,120.00,VWS V14.00,2013-05-05 23:05:00,
2013-05-05 19:10:00,73.0,39.8,30.06,SSE,153,0.0,5.0,30,0.00,,,0.00,105.00,VWS V14.00,2013-05-05 23:10:00,
2013-05-05 19:15:00,72.9,39.7,30.06,SSE,153,0.0,3.0,30,0.00,,,0.00,90.00,VWS V14.00,2013-05-05 23:15:00,
2013-05-05 19:20:00,72.7,40.3,30.06,SSE,154,2.0,3.0,31,0.00,,,0.00,32.00,VWS V14.00,2013-05-05 23:20:00,
2013-05-05 19:26:00,72.5,40.2,30.06,SSE,168,0.0,4.0,31,0.00,,,0.00,26.00,VWS V14.00,2013-05-05 23:26:00,
2013-05-05 19:31:00,72.2,39.9,30.06,SSE,168,1.0,2.0,31,0.00,,,0.00,25.00,VWS V14.00,2013-05-05 23:31:00,
2013-05-05 19:36:00,71.9,38.8,30.06,South,191,3.0,5.0,30,0.00,,,0.00,21.00,VWS V14.00,2013-05-05 23:36:00,
2013-05-05 19:41:00,71.4,38.4,30.06,South,190,2.0,6.0,30,0.00,,,0.00,18.00,VWS V14.00,2013-05-05 23:41:00,
2013-05-05 19:46:00,70.9,38.8,30.06,SSW,192,0.0,3.0,31,0.00,,,0.00,14.00,VWS V14.00,2013-05-05 23:46:00,
2013-05-05 19:51:00,70.4,38.3,30.07,SSW,198,2.0,4.0,31,0.00,,,0.00,11.00,VWS V14.00,2013-05-05 23:51:00,
2013-05-05 19:56:00,70.0,38.0,30.07,SSW,197,0.0,3.0,31,0.00,,,0.00,9.00,VWS V14.00,2013-05-05 23:56:00,
2013-05-05 20:01:00,69.5,38.4,30.07,SSW,197,2.0,2.0,32,0.00,,,0.00,5.00,VWS V14.00,2013-05-06 00:01:00,
2013-05-05 20:06:00,69.1,38.0,30.07,SSW,197,4.0,4.0,32,0.00,,,0.00,0.00,VWS V14.00,2013-05-06 00:06:00,
2013-05-05 20:11:00,68.7,37.7,30.07,SSW,197,0.0,4.0,32,0.00,,,0.00,0.00,VWS V14.00,2013-05-06 00:11:00,
2013-05-05 20:16:00,68.4,38.2,30.07,SSW,197,0.0,1.0,33,0.00,,,0.00,0.00,VWS V14.00,2013-05-06 00:16:00,
2013-05-05 20:21:00,68.0,39.3,30.07,SSW,197,0.0,1.0,35,0.00,,,0.00,0.00,VWS V14.00,2013-05-06 00:21:00,
2013-05-05 20:26:00,67.6,39.0,30.07,SSW,197,0.0,0.0,35,0.00,,,0.00,0.00,VWS V14.00,2013-05-06 00:26:00,
2013-05-05 20:31:00,67.0,39.2,30.07,SSW,197,0.0,0.0,36,0.00,,,0.00,0.00,VWS V14.00,2013-05-06 00:31:00,
2013-05-05 20:36:00,66.3,39.3,30.07,SSW,197,0.0,1.0,37,0.00,,,0.00,0.00,VWS V14.00,2013-05-06 00:36:00,
2013-05-05 20:41:00,65.6,39.3,30.08,SSW,197,0.0,0.0,38,0.00,,,0.00,0.00,VWS V14.00,2013-05-06 00:41:00,
2013-05-05 20:46:00,64.8,39.3,30.08,SSW,197,0.0,0.0,39,0.00,,,0.00,0.00,VWS V14.00,2013-05-06 00:46:00,
2013-05-05 20:51:00,64.1,39.9,30.08,SSW,197,0.0,0.0,41,0.00,,,0.00,0.00,VWS V14.00,2013-05-06 00:51:00,
2013-05-05 20:56:00,63.4,40.5,30.08,SSW,197,0.0,0.0,43,0.00,,,0.00,0.00,VWS V14.00,2013-05-06 00:56:00,
2013-05-05 21:01:00,62.5,40.9,30.09,SSW,197,0.0,0.0,45,0.00,,,0.00,0.00,VWS V14.00,2013-05-06 01:01:00,
2013-05-05 21:06:00,61.6,41.2,30.09,SSW,197,1.0,2.0,47,0.00,,,0.00,0.00,VWS V14.00,2013-05-06 01:06:00,
2013-05-05 21:11:00,60.6,40.3,30.09,SSW,198,2.0,2.0,47,0.00,,,0.00,0.00,VWS V14.00,2013-05-06 01:11:00,
2013-05-05 21:16:00,59.7,40.5,30.10,SSW,198,0.0,0.0,49,0.00,,,0.00,0.00,VWS V14.00,2013-05-06 01:16:00,
2013-05-05 21:21:00,58.9,40.3,30.09,WSW,255,2.0,2.0,50,0.00,,,0.00,0.00,VWS V14.00,2013-05-06 01:21:00,
2013-05-05 21:26:00,58.3,40.3,30.10,WSW,255,0.0,1.0,51,0.00,,,0.00,0.00,VWS V14.00,2013-05-06 01:26:00,
2013-05-05 21:31:00,57.8,40.8,30.10,WSW,255,2.0,3.0,53,0.00,,,0.00,0.00,VWS V14.00,2013-05-06 01:31:00,
2013-05-05 21:36:00,57.3,40.8,30.10,WSW,255,3.0,3.0,54,0.00,,,0.00,0.00,VWS V14.00,2013-05-06 01:36:00,
2013-05-05 21:41:00,56.8,40.3,30.11,WSW,255,2.0,2.0,54,0.00,,,0.00,0.00,VWS V14.00,2013-05-06 01:41:00,
2013-05-05 21:46:00,56.4,40.5,30.11,WSW,255,0.0,1.0,55,0.00,,,0.00,0.00,VWS V14.00,2013-05-06 01:46:00,
2013-05-05 21:51:00,56.0,40.1,30.11,WSW,255,0.0,0.0,55,0.00,,,0.00,0.00,VWS V14.00,2013-05-06 01:51:00,
2013-05-05 21:56:00,55.7,40.3,30.11,WSW,255,1.0,1.0,56,0.00,,,0.00,0.00,VWS V14.00,2013-05-06 01:56:00,
2013-05-05 22:01:00,55.3,40.3,30.11,WSW,255,2.0,3.0,57,0.00,,,0.00,0.00,VWS V14.00,2013-05-06 02:01:00,
2013-05-05 22:06:00,55.0,40.1,30.11,WSW,257,2.0,4.0,57,0.00,,,0.00,0.00,VWS V14.00,2013-05-06 02:06:00,
2013-05-05 22:11:00,54.6,40.1,30.11,WSW,257,2.0,2.0,58,0.00,,,0.00,0.00,VWS V14.00,2013-05-06 02:11:00,
2013-05-05 22:16:00,54.3,40.3,30.11,WSW,257,0.0,0.0,59,0.00,,,0.00,0.00,VWS V14.00,2013-05-06 02:16:00,
2013-05-05 22:21:00,54.1,40.5,30.11,WSW,257,1.0,1.0,60,0.00,,,0.00,0.00,VWS V14.00,2013-05-06 02:21:00,
2013-05-05 22:26:00,53.7,40.6,30.11,West,264,1.0,2.0,61,0.00,,,0.00,0.00,VWS V14.00,2013-05-06 02:26:00,
2013-05-05 22:31:00,53.4,40.3,30.11,West,264,1.0,2.0,61,0.00,,,0.00,0.00,VWS V14.00,2013-05-06 02:31:00,
2013-05-05 22:36:00,53.1,40.4,30.11,West,264,0.0,0.0,62,0.00,,,0.00,0.00,VWS V14.00,2013-05-06 02:36:00,
2013-05-05 22:41:00,52.8,39.7,30.11,West,264,0.0,0.0,61,0.00,,,0.00,0.00,VWS V14.00,2013-05-06 02:41:00,
2013-05-05 22:46:00,52.6,40.0,30.11,West,264,1.0,2.0,62,0.00,,,0.00,0.00,VWS V14.00,2013-05-06 02:46:00,
2013-05-05 22:51:00,52.3,40.1,30.11,West,264,2.0,3.0,63,0.00,,,0.00,0.00,VWS V14.00,2013-05-06 02:51:00,
2013-05-05 22:56:00,51.9,40.1,30.11,West,264,0.0,3.0,64,0.00,,,0.00,0.00,VWS V14.00,2013-05-06 02:56:00,
2013-05-05 23:01:00,51.7,39.9,30.11,West,264,3.0,3.0,64,0.00,,,0.00,0.00,VWS V14.00,2013-05-06 03:01:00,
2013-05-05 23:06:00,51.4,40.0,30.11,West,265,2.0,4.0,65,0.00,,,0.00,0.00,VWS V14.00,2013-05-06 03:06:00,
2013-05-05 23:11:00,51.0,39.7,30.11,West,265,2.0,2.0,65,0.00,,,0.00,0.00,VWS V14.00,2013-05-06 03:11:00,
2013-05-05 23:16:00,50.8,39.5,30.11,West,267,0.0,1.0,65,0.00,,,0.00,0.00,VWS V14.00,2013-05-06 03:16:00,
2013-05-05 23:21:00,50.6,39.3,30.11,West,265,0.0,1.0,65,0.00,,,0.00,0.00,VWS V14.00,2013-05-06 03:21:00,
2013-05-05 23:26:00,50.4,38.7,30.11,SW,234,7.0,7.0,64,0.00,,,0.00,0.00,VWS V14.00,2013-05-06 03:26:00,
2013-05-05 23:31:00,50.6,36.4,30.11,SW,216,5.0,5.0,58,0.00,,,0.00,0.00,VWS V14.00,2013-05-06 03:31:00,
2013-05-05 23:36:00,51.4,35.8,30.11,SW,236,4.0,7.0,55,0.00,,,0.00,0.00,VWS V14.00,2013-05-06 03:36:00,
2013-05-05 23:41:00,52.3,35.2,30.11,West,271,6.0,6.0,52,0.00,,,0.00,0.00,VWS V14.00,2013-05-06 03:41:00,
2013-05-05 23:46:00,53.4,35.2,30.11,SW,236,8.0,8.0,50,0.00,,,0.00,0.00,VWS V14.00,2013-05-06 03:46:00,
2013-05-05 23:51:00,54.6,35.3,30.11,West,273,5.0,9.0,48,0.00,,,0.00,0.00,VWS V14.00,2013-05-06 03:51:00,
2013-05-05 23:56:00,55.5,35.6,30.12,West,277,3.0,3.0,47,0.00,,,0.00,0.00,VWS V14.00,2013-05-06 03:56:00,